Weather History for Sevilla, Spain

Change the Weather History Date:

Thursday, November 10, 2011

  Actual Average Record
Temperature  
Mean Temperature 62 °F -  
Max Temperature 73 °F 64 °F 77 °F (1998)
Min Temperature 51 °F 47 °F 41 °F (2001)
Degree Days  
Heating Degree Days 3    
Growing Degree Days 12 (Base 50)    
Moisture  
Dew Point 53 °F    
Average Humidity 75    
Maximum Humidity 100    
Minimum Humidity 50    
Precipitation  
Precipitation 0.00 in - - ()
Sea Level Pressure  
Sea Level Pressure 30.04 in    
Wind  
Wind Speed 2 mph ()    
Max Wind Speed 7 mph    
Max Gust Speed -    
Visibility 5.3 miles    
Events      
Averages and records for this station are not official NWS values.
T = Trace of Precipitation, MM = Missing Value Source: Averaged Metar Reports

Daily Weather History Graph

Daily Weather History Graph

Search for Another Location

Airport:

Trip Planner

Search our weather history database for the weather conditions in past years. The results will help you decide how hot, cold, wet, or windy it might be!

Date:

Astronomy

Nov. 10, 2011 Rise Set
Actual Time 7:57 AM CET 6:17 PM CET
Civil Twilight 7:29 AM CET 6:44 PM CET
Nautical Twilight 6:58 AM CET 7:15 PM CET
Astronomical Twilight 6:27 AM CET 7:46 PM CET
Moon 5:57 PM CET (11/10) 7:35 AM CET (11/10)
Length of Visible Light 11h 15m
Length of Day
10h 20m
Full, 100% of the Moon is Illuminated
Nov 10
Full
Nov 10
Full
Nov 18
Last Quarter
Nov 25
New
Dec 2
First Quarter

Hourly Weather History & Observations

Time (CET) Temp. Dew Point Humidity Pressure Visibility Wind Dir Wind Speed Gust Speed Precip Events Conditions
12:00 AM 57.2 °F 53.6 °F 88% 30.09 in 6.2 mi Variable 1.2 mph - N/A   Partly Cloudy
12:30 AM 55.4 °F 53.6 °F 94% 30.06 in 6.2 mi Calm Calm - N/A   Partly Cloudy
1:00 AM 57.2 °F 53.6 °F 88% 30.06 in 6.2 mi Variable 1.2 mph - N/A   Partly Cloudy
4:30 AM 53.6 °F 51.8 °F 94% 30.06 in 6.2 mi NNE 3.5 mph - N/A   Partly Cloudy
5:00 AM 51.8 °F 51.8 °F 100% 30.06 in 4.3 mi Calm Calm - N/A   Partly Cloudy
5:30 AM 51.8 °F 51.8 °F 100% 30.04 in 5.0 mi Calm Calm - N/A   Partly Cloudy
6:00 AM 51.8 °F 50.0 °F 94% 30.06 in 5.0 mi Calm Calm - N/A   Partly Cloudy
6:30 AM 51.8 °F 50.0 °F 94% 30.06 in 3.7 mi NNE 3.5 mph - N/A   Partly Cloudy
7:00 AM 51.8 °F 51.8 °F 100% 30.06 in 3.7 mi NE 3.5 mph - N/A   Partly Cloudy
7:30 AM 53.6 °F 51.8 °F 94% 30.06 in 5.0 mi NE 1.2 mph - N/A   Partly Cloudy
8:00 AM 51.8 °F 51.8 °F 100% 30.06 in 5.0 mi NE 2.3 mph - N/A   Unknown
8:30 AM 53.6 °F 51.8 °F 94% 30.06 in 5.0 mi Calm Calm - N/A   Unknown
9:00 AM 55.4 °F 51.8 °F 88% 30.06 in 5.6 mi Variable 1.2 mph - N/A   Unknown
9:30 AM 55.4 °F 53.6 °F 94% 30.09 in 4.3 mi NE 3.5 mph - N/A   Unknown
10:00 AM 59.0 °F 53.6 °F 82% 30.09 in 4.3 mi NE 4.6 mph - N/A   Unknown
10:30 AM 60.8 °F 53.6 °F 77% 30.09 in 4.3 mi ENE 4.6 mph - N/A   Unknown
11:00 AM 62.6 °F 55.4 °F 77% 30.09 in - Variable 2.3 mph - N/A   Clear
11:30 AM 66.2 °F 55.4 °F 68% 30.09 in - ESE 2.3 mph - N/A   Clear
12:00 PM 68.0 °F 53.6 °F 60% 30.06 in - SE 1.2 mph - N/A   Clear
12:30 PM 69.8 °F 53.6 °F 56% 30.06 in - South 2.3 mph - N/A   Clear
1:00 PM 71.6 °F 51.8 °F 50% 30.06 in - SSE 3.5 mph - N/A   Clear
2:00 PM 71.6 °F 53.6 °F 53% 30.04 in - Variable 2.3 mph - N/A   Clear
2:30 PM 71.6 °F 53.6 °F 53% 30.01 in - South 4.6 mph - N/A   Clear
3:00 PM 73.4 °F 53.6 °F 50% 30.01 in 6.2 mi West 2.3 mph - N/A   Partly Cloudy
3:30 PM 71.6 °F 53.6 °F 53% 30.01 in 6.2 mi SSW 3.5 mph - N/A   Partly Cloudy
4:00 PM 73.4 °F 53.6 °F 50% 29.98 in 6.2 mi South 4.6 mph - N/A   Partly Cloudy
4:30 PM 73.4 °F 55.4 °F 53% 29.98 in 6.2 mi SW 5.8 mph - N/A   Partly Cloudy
5:00 PM 73.4 °F 55.4 °F 53% 29.98 in 6.2 mi SSW 4.6 mph - N/A   Partly Cloudy
5:30 PM 71.6 °F 55.4 °F 57% 29.98 in 6.2 mi WSW 3.5 mph - N/A   Partly Cloudy
6:00 PM 71.6 °F 53.6 °F 53% 29.98 in - SW 4.6 mph - N/A   Clear
6:30 PM 68.0 °F 53.6 °F 60% 30.01 in - WSW 3.5 mph - N/A   Clear
7:00 PM 68.0 °F 53.6 °F 60% 30.01 in - West 6.9 mph - N/A   Clear
7:30 PM 66.2 °F 53.6 °F 64% 30.01 in - West 5.8 mph - N/A   Clear
8:00 PM 64.4 °F 51.8 °F 64% 30.01 in - West 2.3 mph - N/A   Clear
8:30 PM 62.6 °F 53.6 °F 72% 30.01 in - Calm Calm - N/A   Clear
9:00 PM 60.8 °F 53.6 °F 77% 30.01 in - Calm Calm - N/A   Clear
9:30 PM 59.0 °F 53.6 °F 82% 30.01 in - ESE 2.3 mph - N/A   Clear
10:00 PM 59.0 °F 53.6 °F 82% 30.04 in - ESE 2.3 mph - N/A   Clear
10:30 PM 59.0 °F 53.6 °F 82% 30.01 in - South 5.8 mph - N/A   Clear
11:00 PM 59.0 °F 53.6 °F 82% 30.01 in - South 4.6 mph - N/A   Clear
11:30 PM 59.0 °F 53.6 °F 82% 30.01 in - SSE 3.5 mph - N/A   Clear